STARLINK-2476 (48134 NORAD) Tracking and Keplerian Element Data

This shows tracking and keplerian element data for the satellite.

Feedback or suggestion? Click here.




ElementValue
Catalog48134
NameSTARLINK-2476
Epoch Orbit195
Epoch Day170.58334491
Epoch Year2021
RAAN351.4192
Inclination53.0527
Eccentricity0.0001417
Argument of Perigee100.5492
Mean Anonmoly94.5167
Mean Motion15.06391917
Decay Rate4.413E-05
L11 48134U 21027AU 21170.58334491 .00004413 00000-0 31506-3 0 9990
L22 48134 53.0527 351.4192 0001417 100.5492 94.5167 15.06391917 1952

Live tracking and technical data element details for STARLINK-2476 (NORAD 48134). STARLINK-2476 can be tracked NOW for your location showing map with azimuth and elevation plus other details from your city location.

Track the satellite on the map from your city or location and see movement details for azimuth, elevation, latitude, longitude, range, height, and movement on the map or in text.







IsCatalogInMostPopularTable: catalog: 48134, numindb: 32
Update: records affected: 1



GetName: 48134 STARLINK-2476

Hit Count: updated at: Mon, 21 Jun 2021 04:25:00 GMT